Time,TemperatureF,DewpointF,PressureIn,WindDirection,WindDirectionDegrees,WindSpeedMPH,WindSpeedGustMPH,Humidity,HourlyPrecipIn,Conditions,Clouds,dailyrainin,SoftwareType,DateUTC
2013-06-14 00:00:00,67.8,57.7,29.90,NNW,333,0.0,9.0,70,0.00,,BKN055,0.00,VWS V14.00,2013-06-14 04:00:00,
2013-06-14 00:01:00,67.8,57.7,29.90,NNW,333,0.0,9.0,70,0.00,,BKN055,0.00,VWS V14.00,2013-06-14 04:01:00,
2013-06-14 00:10:00,67.4,57.7,29.91,NW,313,0.0,9.0,71,0.00,,BKN055,0.00,VWS V14.00,2013-06-14 04:10:00,
2013-06-14 00:11:00,67.4,57.7,29.91,NW,313,0.0,9.0,71,0.00,,BKN055,0.00,VWS V14.00,2013-06-14 04:11:00,
2013-06-14 00:20:00,67.1,57.4,29.90,NW,315,0.0,11.0,71,0.00,,BKN055,0.00,VWS V14.00,2013-06-14 04:20:00,
2013-06-14 00:21:00,67.1,57.4,29.90,NW,315,0.0,11.0,71,0.00,,BKN055,0.00,VWS V14.00,2013-06-14 04:21:00,
2013-06-14 00:30:00,66.6,57.3,29.90,NW,322,0.0,9.0,72,0.00,,BKN055,0.00,VWS V14.00,2013-06-14 04:30:00,
2013-06-14 00:31:00,66.6,57.3,29.90,NW,322,0.0,9.0,72,0.00,,BKN055,0.00,VWS V14.00,2013-06-14 04:31:00,
2013-06-14 00:40:00,65.9,57.4,29.91,NNW,346,0.0,4.0,74,0.00,,BKN055,0.00,VWS V14.00,2013-06-14 04:40:00,
2013-06-14 00:41:00,65.9,57.4,29.91,NNW,346,0.0,4.0,74,0.00,,BKN055,0.00,VWS V14.00,2013-06-14 04:41:00,
2013-06-14 00:50:00,65.4,57.3,29.90,North,5,0.0,8.0,75,0.00,,BKN055,0.00,VWS V14.00,2013-06-14 04:50:00,
2013-06-14 00:51:00,65.4,57.3,29.90,North,5,0.0,8.0,75,0.00,,BKN055,0.00,VWS V14.00,2013-06-14 04:51:00,
2013-06-14 01:00:00,65.3,56.8,29.90,NNW,345,2.0,10.0,74,0.00,,BKN055,0.00,VWS V14.00,2013-06-14 05:00:00,
2013-06-14 01:01:00,65.3,56.8,29.90,NNW,345,2.0,10.0,74,0.00,,BKN055,0.00,VWS V14.00,2013-06-14 05:01:00,
2013-06-14 01:10:00,65.1,56.6,29.90,WNW,294,6.0,9.0,74,0.00,,BKN055,0.00,VWS V14.00,2013-06-14 05:10:00,
2013-06-14 01:11:00,65.1,56.6,29.90,WNW,294,6.0,9.0,74,0.00,,BKN055,0.00,VWS V14.00,2013-06-14 05:11:00,
2013-06-14 01:20:00,64.9,56.4,29.90,NNW,330,0.0,7.0,74,0.00,,BKN055,0.00,VWS V14.00,2013-06-14 05:20:00,
2013-06-14 01:21:00,64.9,56.4,29.90,NNW,330,0.0,7.0,74,0.00,,BKN055,0.00,VWS V14.00,2013-06-14 05:21:00,
2013-06-14 01:30:00,64.3,56.2,29.90,East,88,0.0,2.0,75,0.00,,BKN055,0.00,VWS V14.00,2013-06-14 05:30:00,
2013-06-14 01:31:00,64.3,56.2,29.90,East,88,0.0,2.0,75,0.00,,BKN055,0.00,VWS V14.00,2013-06-14 05:31:00,
2013-06-14 01:40:00,63.8,56.5,29.90,East,87,0.0,0.0,77,0.00,,BKN055,0.00,VWS V14.00,2013-06-14 05:40:00,
2013-06-14 01:41:00,63.8,56.5,29.90,East,87,0.0,0.0,77,0.00,,BKN055,0.00,VWS V14.00,2013-06-14 05:41:00,
2013-06-14 01:50:00,63.1,56.1,29.90,East,88,0.0,0.0,78,0.00,,BKN055,0.00,VWS V14.00,2013-06-14 05:50:00,
2013-06-14 01:51:00,63.1,56.1,29.90,East,88,0.0,0.0,78,0.00,,BKN055,0.00,VWS V14.00,2013-06-14 05:51:00,
2013-06-14 02:00:00,62.7,56.1,29.90,East,88,0.0,2.0,79,0.00,,BKN055,0.00,VWS V14.00,2013-06-14 06:00:00,
2013-06-14 02:01:00,62.7,56.1,29.90,East,88,0.0,2.0,79,0.00,,BKN055,0.00,VWS V14.00,2013-06-14 06:01:00,
2013-06-14 02:10:00,61.6,56.4,29.90,East,88,0.0,0.0,83,0.00,,BKN055,0.00,VWS V14.00,2013-06-14 06:10:00,
2013-06-14 02:11:00,61.6,56.4,29.90,East,88,0.0,0.0,83,0.00,,BKN055,0.00,VWS V14.00,2013-06-14 06:11:00,
2013-06-14 02:20:00,60.7,56.2,29.89,East,88,0.0,0.0,85,0.00,,BKN055,0.00,VWS V14.00,2013-06-14 06:20:00,
2013-06-14 02:21:00,60.7,56.2,29.89,East,88,0.0,0.0,85,0.00,,BKN055,0.00,VWS V14.00,2013-06-14 06:21:00,
2013-06-14 02:30:00,59.7,55.8,29.90,East,88,0.0,0.0,87,0.00,,BKN055,0.00,VWS V14.00,2013-06-14 06:30:00,
2013-06-14 02:31:00,59.7,55.8,29.90,East,88,0.0,0.0,87,0.00,,BKN055,0.00,VWS V14.00,2013-06-14 06:31:00,
2013-06-14 02:40:00,59.0,55.8,29.89,East,87,0.0,0.0,89,0.00,,BKN055,0.00,VWS V14.00,2013-06-14 06:40:00,
2013-06-14 02:41:00,59.0,55.8,29.89,East,87,0.0,0.0,89,0.00,,BKN055,0.00,VWS V14.00,2013-06-14 06:41:00,
2013-06-14 02:50:00,58.7,55.8,29.89,East,88,0.0,0.0,90,0.00,,BKN055,0.00,VWS V14.00,2013-06-14 06:50:00,
2013-06-14 02:51:00,58.7,55.8,29.89,East,88,0.0,0.0,90,0.00,,BKN055,0.00,VWS V14.00,2013-06-14 06:51:00,
2013-06-14 03:00:00,58.3,55.4,29.89,East,87,0.0,0.0,90,0.00,,BKN055,0.00,VWS V14.00,2013-06-14 07:00:00,
2013-06-14 03:01:00,58.3,55.4,29.89,East,87,0.0,0.0,90,0.00,,BKN055,0.00,VWS V14.00,2013-06-14 07:01:00,
2013-06-14 03:10:00,57.9,55.3,29.89,East,88,0.0,0.0,91,0.00,,BKN055,0.00,VWS V14.00,2013-06-14 07:10:00,
2013-06-14 03:11:00,57.9,55.3,29.89,East,88,0.0,0.0,91,0.00,,BKN055,0.00,VWS V14.00,2013-06-14 07:11:00,
2013-06-14 03:20:00,57.3,55.0,29.89,East,87,0.0,0.0,92,0.00,,BKN055,0.00,VWS V14.00,2013-06-14 07:20:00,
2013-06-14 03:21:00,57.3,55.0,29.89,East,87,0.0,0.0,92,0.00,,BKN055,0.00,VWS V14.00,2013-06-14 07:21:00,
2013-06-14 03:30:00,57.1,55.1,29.89,East,88,0.0,0.0,93,0.00,,BKN055,0.00,VWS V14.00,2013-06-14 07:30:00,
2013-06-14 03:31:00,57.1,55.1,29.89,East,88,0.0,0.0,93,0.00,,BKN055,0.00,VWS V14.00,2013-06-14 07:31:00,
2013-06-14 03:40:00,56.9,54.9,29.89,East,88,0.0,1.0,93,0.00,,BKN055,0.00,VWS V14.00,2013-06-14 07:40:00,
2013-06-14 03:41:00,56.9,54.9,29.89,East,88,0.0,1.0,93,0.00,,BKN055,0.00,VWS V14.00,2013-06-14 07:41:00,
2013-06-14 03:50:00,56.8,55.1,29.89,East,88,1.0,2.0,94,0.00,,BKN055,0.00,VWS V14.00,2013-06-14 07:50:00,
2013-06-14 03:51:00,56.8,55.1,29.89,East,88,1.0,2.0,94,0.00,,BKN055,0.00,VWS V14.00,2013-06-14 07:51:00,
2013-06-14 04:00:00,56.6,54.9,29.89,East,88,0.0,1.0,94,0.00,,BKN055,0.00,VWS V14.00,2013-06-14 08:00:00,
2013-06-14 04:01:00,56.6,54.9,29.89,East,88,0.0,1.0,94,0.00,,BKN055,0.00,VWS V14.00,2013-06-14 08:01:00,
2013-06-14 04:10:00,56.6,54.9,29.89,East,88,0.0,1.0,94,0.00,,BKN055,0.00,VWS V14.00,2013-06-14 08:10:00,
2013-06-14 04:11:00,56.6,54.9,29.89,East,88,0.0,1.0,94,0.00,,BKN055,0.00,VWS V14.00,2013-06-14 08:11:00,
2013-06-14 04:20:00,56.1,54.7,29.89,NE,53,0.0,2.0,95,0.00,,BKN055,0.00,VWS V14.00,2013-06-14 08:20:00,
2013-06-14 04:21:00,56.1,54.7,29.89,NE,53,0.0,2.0,95,0.00,,BKN055,0.00,VWS V14.00,2013-06-14 08:21:00,
2013-06-14 04:30:00,55.9,54.5,29.89,NE,52,0.0,2.0,95,0.00,,BKN055,0.00,VWS V14.00,2013-06-14 08:30:00,
2013-06-14 04:31:00,55.9,54.5,29.89,NE,52,0.0,2.0,95,0.00,,BKN055,0.00,VWS V14.00,2013-06-14 08:31:00,
2013-06-14 04:40:00,55.9,54.5,29.90,NE,53,0.0,2.0,95,0.00,,BKN055,0.00,VWS V14.00,2013-06-14 08:40:00,
2013-06-14 04:41:00,55.9,54.5,29.90,NE,53,0.0,2.0,95,0.00,,BKN055,0.00,VWS V14.00,2013-06-14 08:41:00,
2013-06-14 04:50:00,55.7,54.3,29.90,NE,52,1.0,3.0,95,0.00,,BKN055,0.00,VWS V14.00,2013-06-14 08:50:00,
2013-06-14 04:51:00,55.7,54.3,29.90,NE,52,1.0,3.0,95,0.00,,BKN055,0.00,VWS V14.00,2013-06-14 08:51:00,
2013-06-14 05:00:00,55.6,54.2,29.90,NE,53,0.0,2.0,95,0.00,,BKN055,0.00,VWS V14.00,2013-06-14 09:00:00,
2013-06-14 05:01:00,55.6,54.2,29.90,NE,53,0.0,2.0,95,0.00,,BKN055,0.00,VWS V14.00,2013-06-14 09:01:00,
2013-06-14 05:10:00,55.5,54.1,29.92,NE,53,0.0,0.0,95,0.00,,BKN055,0.00,VWS V14.00,2013-06-14 09:10:00,
2013-06-14 05:11:00,55.5,54.1,29.92,NE,53,0.0,0.0,95,0.00,,BKN055,0.00,VWS V14.00,2013-06-14 09:11:00,
2013-06-14 05:20:00,55.4,54.3,29.92,NE,53,0.0,0.0,96,0.00,,BKN055,0.00,VWS V14.00,2013-06-14 09:20:00,
2013-06-14 05:21:00,55.4,54.3,29.92,NE,53,0.0,0.0,96,0.00,,BKN055,0.00,VWS V14.00,2013-06-14 09:21:00,
2013-06-14 05:30:00,55.1,54.0,29.92,NE,52,0.0,0.0,96,0.00,,BKN055,0.00,VWS V14.00,2013-06-14 09:30:00,
2013-06-14 05:31:00,55.1,54.0,29.92,NE,52,0.0,0.0,96,0.00,,BKN055,0.00,VWS V14.00,2013-06-14 09:31:00,
2013-06-14 05:40:00,55.0,53.9,29.93,NE,52,0.0,0.0,96,0.00,,BKN055,0.00,VWS V14.00,2013-06-14 09:40:00,
2013-06-14 05:41:00,55.0,53.9,29.93,NE,52,0.0,0.0,96,0.00,,BKN055,0.00,VWS V14.00,2013-06-14 09:41:00,
2013-06-14 05:50:00,54.9,53.8,29.93,NE,52,0.0,0.0,96,0.00,,BKN055,0.00,VWS V14.00,2013-06-14 09:50:00,
2013-06-14 05:51:00,54.9,53.8,29.93,NE,52,0.0,0.0,96,0.00,,BKN055,0.00,VWS V14.00,2013-06-14 09:51:00,
2013-06-14 06:00:00,54.5,53.4,29.93,NW,309,0.0,0.0,96,0.00,,BKN055,0.00,VWS V14.00,2013-06-14 10:00:00,
2013-06-14 06:01:00,54.5,53.4,29.93,NW,309,0.0,0.0,96,0.00,,BKN055,0.00,VWS V14.00,2013-06-14 10:01:00,
2013-06-14 06:10:00,54.5,53.4,29.94,NW,309,0.0,1.0,96,0.00,,BKN055,0.00,VWS V14.00,2013-06-14 10:10:00,
2013-06-14 06:11:00,54.5,53.4,29.94,NW,309,0.0,1.0,96,0.00,,BKN055,0.00,VWS V14.00,2013-06-14 10:11:00,
2013-06-14 06:20:00,54.4,53.6,29.94,NW,309,0.0,0.0,97,0.00,,BKN055,0.00,VWS V14.00,2013-06-14 10:20:00,
2013-06-14 06:21:00,54.4,53.6,29.94,NW,309,0.0,0.0,97,0.00,,BKN055,0.00,VWS V14.00,2013-06-14 10:21:00,
2013-06-14 06:30:00,54.7,53.9,29.94,NW,309,0.0,0.0,97,0.00,,BKN055,0.00,VWS V14.00,2013-06-14 10:30:00,
2013-06-14 06:31:00,54.7,53.9,29.94,NW,309,0.0,0.0,97,0.00,,BKN055,0.00,VWS V14.00,2013-06-14 10:31:00,
2013-06-14 06:40:00,55.0,54.2,29.95,NW,309,0.0,0.0,97,0.00,,BKN055,0.00,VWS V14.00,2013-06-14 10:40:00,
2013-06-14 06:41:00,55.0,54.2,29.95,NW,309,0.0,0.0,97,0.00,,BKN055,0.00,VWS V14.00,2013-06-14 10:41:00,
2013-06-14 06:50:00,55.5,54.7,29.95,NNW,338,0.0,0.0,97,0.00,,BKN055,0.00,VWS V14.00,2013-06-14 10:50:00,
2013-06-14 06:51:00,55.5,54.7,29.95,NNW,338,0.0,0.0,97,0.00,,BKN055,0.00,VWS V14.00,2013-06-14 10:51:00,
2013-06-14 07:00:00,55.9,55.1,29.95,NNW,338,0.0,0.0,97,0.00,,BKN055,0.00,VWS V14.00,2013-06-14 11:00:00,
2013-06-14 07:01:00,55.9,55.1,29.95,NNW,338,0.0,0.0,97,0.00,,BKN055,0.00,VWS V14.00,2013-06-14 11:01:00,
2013-06-14 07:10:00,56.7,55.9,29.96,NE,48,0.0,0.0,97,0.00,,BKN055,0.00,VWS V14.00,2013-06-14 11:10:00,
2013-06-14 07:11:00,56.7,55.9,29.96,NE,48,0.0,0.0,97,0.00,,BKN055,0.00,VWS V14.00,2013-06-14 11:11:00,
2013-06-14 07:20:00,57.3,56.2,29.97,NE,46,0.0,3.0,96,0.00,,BKN055,0.00,VWS V14.00,2013-06-14 11:20:00,
2013-06-14 07:21:00,57.3,56.2,29.97,NE,46,0.0,3.0,96,0.00,,BKN055,0.00,VWS V14.00,2013-06-14 11:21:00,
2013-06-14 07:30:00,57.8,56.4,29.96,NE,47,2.0,3.0,95,0.00,,BKN055,0.00,VWS V14.00,2013-06-14 11:30:00,
2013-06-14 07:31:00,57.8,56.4,29.96,NE,47,2.0,3.0,95,0.00,,BKN055,0.00,VWS V14.00,2013-06-14 11:31:00,
2013-06-14 07:40:00,58.4,56.4,29.96,NNE,30,2.0,4.0,93,0.00,,BKN055,0.00,VWS V14.00,2013-06-14 11:40:00,
2013-06-14 07:41:00,58.4,56.4,29.96,NNE,30,2.0,4.0,93,0.00,,BKN055,0.00,VWS V14.00,2013-06-14 11:41:00,
2013-06-14 07:50:00,59.1,56.8,29.96,NNE,30,2.0,4.0,92,0.00,,BKN055,0.00,VWS V14.00,2013-06-14 11:50:00,
2013-06-14 07:51:00,59.1,56.8,29.96,NNE,30,2.0,4.0,92,0.00,,BKN055,0.00,VWS V14.00,2013-06-14 11:51:00,
2013-06-14 08:00:00,60.3,57.7,29.96,NNE,33,0.0,3.0,91,0.00,,BKN055,0.00,VWS V14.00,2013-06-14 12:00:00,
2013-06-14 08:01:00,60.3,57.7,29.96,NNE,33,0.0,3.0,91,0.00,,BKN055,0.00,VWS V14.00,2013-06-14 12:01:00,
2013-06-14 08:10:00,61.4,58.5,29.97,NNE,33,0.0,1.0,90,0.00,,BKN055,0.00,VWS V14.00,2013-06-14 12:10:00,
2013-06-14 08:11:00,61.4,58.5,29.97,NNE,33,0.0,1.0,90,0.00,,BKN055,0.00,VWS V14.00,2013-06-14 12:11:00,
2013-06-14 08:20:00,62.4,58.5,29.97,NNE,21,0.0,5.0,87,0.00,,BKN055,0.00,VWS V14.00,2013-06-14 12:20:00,
2013-06-14 08:21:00,62.4,58.5,29.97,NNE,21,0.0,5.0,87,0.00,,BKN055,0.00,VWS V14.00,2013-06-14 12:21:00,
2013-06-14 08:30:00,63.2,59.0,29.98,NNE,18,3.0,5.0,86,0.00,,BKN055,0.00,VWS V14.00,2013-06-14 12:30:00,
2013-06-14 08:31:00,63.2,59.0,29.98,NNE,18,3.0,5.0,86,0.00,,BKN055,0.00,VWS V14.00,2013-06-14 12:31:00,
2013-06-14 08:40:00,63.7,59.8,29.98,North,360,4.0,6.0,87,0.00,,BKN055,0.00,VWS V14.00,2013-06-14 12:40:00,
2013-06-14 08:41:00,63.7,59.8,29.98,North,360,4.0,6.0,87,0.00,,BKN055,0.00,VWS V14.00,2013-06-14 12:41:00,
2013-06-14 08:50:00,64.5,59.6,29.99,NNW,344,0.0,5.0,84,0.00,,BKN055,0.00,VWS V14.00,2013-06-14 12:50:00,
2013-06-14 08:51:00,64.5,59.6,29.99,NNW,344,0.0,5.0,84,0.00,,BKN055,0.00,VWS V14.00,2013-06-14 12:51:00,
2013-06-14 09:00:00,65.4,60.1,29.98,NE,55,0.0,3.0,83,0.00,,BKN055,0.00,VWS V14.00,2013-06-14 13:00:00,
2013-06-14 09:01:00,65.4,60.1,29.98,NE,55,0.0,3.0,83,0.00,,BKN055,0.00,VWS V14.00,2013-06-14 13:01:00,
2013-06-14 09:10:00,66.4,60.7,29.98,NE,45,0.0,4.0,82,0.00,,BKN055,0.00,VWS V14.00,2013-06-14 13:10:00,
2013-06-14 09:11:00,66.4,60.7,29.98,NE,45,0.0,4.0,82,0.00,,BKN055,0.00,VWS V14.00,2013-06-14 13:11:00,
2013-06-14 09:20:00,66.7,60.7,29.99,North,9,0.0,5.0,81,0.00,,BKN055,0.00,VWS V14.00,2013-06-14 13:20:00,
2013-06-14 09:21:00,66.7,60.7,29.99,North,9,0.0,5.0,81,0.00,,BKN055,0.00,VWS V14.00,2013-06-14 13:21:00,
2013-06-14 09:30:00,67.2,60.5,29.99,NNW,337,0.0,7.0,79,0.00,,BKN055,0.00,VWS V14.00,2013-06-14 13:30:00,
2013-06-14 09:31:00,67.2,60.5,29.99,NNW,337,0.0,7.0,79,0.00,,BKN055,0.00,VWS V14.00,2013-06-14 13:31:00,
2013-06-14 09:40:00,67.5,61.5,30.00,NNW,340,4.0,5.0,81,0.00,,BKN055,0.00,VWS V14.00,2013-06-14 13:40:00,
2013-06-14 09:41:00,67.5,61.5,30.00,NNW,340,4.0,5.0,81,0.00,,BKN055,0.00,VWS V14.00,2013-06-14 13:41:00,
2013-06-14 09:50:00,68.2,61.5,30.00,ENE,75,3.0,5.0,79,0.00,,BKN055,0.00,VWS V14.00,2013-06-14 13:50:00,
2013-06-14 09:51:00,68.2,61.5,30.00,ENE,75,3.0,5.0,79,0.00,,BKN055,0.00,VWS V14.00,2013-06-14 13:51:00,
2013-06-14 10:00:00,68.7,62.3,29.99,NNW,328,0.0,6.0,80,0.00,,BKN055,0.00,VWS V14.00,2013-06-14 14:00:00,
2013-06-14 10:01:00,68.7,62.3,29.99,NNW,328,0.0,6.0,80,0.00,,BKN055,0.00,VWS V14.00,2013-06-14 14:01:00,
2013-06-14 10:10:00,69.7,62.9,29.99,ENE,65,0.0,6.0,79,0.00,,BKN055,0.00,VWS V14.00,2013-06-14 14:10:00,
2013-06-14 10:11:00,69.7,62.9,29.99,ENE,65,0.0,6.0,79,0.00,,BKN055,0.00,VWS V14.00,2013-06-14 14:11:00,
2013-06-14 10:20:00,70.7,63.1,29.99,ENE,68,0.0,4.0,77,0.00,,BKN055,0.00,VWS V14.00,2013-06-14 14:20:00,
2013-06-14 10:21:00,70.7,63.1,29.99,ENE,68,0.0,4.0,77,0.00,,BKN055,0.00,VWS V14.00,2013-06-14 14:21:00,
2013-06-14 10:30:00,71.0,63.4,30.00,NE,34,0.0,4.0,77,0.00,,BKN055,0.00,VWS V14.00,2013-06-14 14:30:00,
2013-06-14 10:31:00,71.0,63.4,30.00,NE,34,0.0,4.0,77,0.00,,BKN055,0.00,VWS V14.00,2013-06-14 14:31:00,
2013-06-14 10:40:00,71.9,63.5,30.00,NNW,344,0.0,4.0,75,0.00,,BKN055,0.00,VWS V14.00,2013-06-14 14:40:00,
2013-06-14 10:41:00,71.9,63.5,30.00,NNW,344,0.0,4.0,75,0.00,,BKN055,0.00,VWS V14.00,2013-06-14 14:41:00,
2013-06-14 10:50:00,73.0,63.8,30.00,North,11,4.0,5.0,73,0.00,,BKN055,0.00,VWS V14.00,2013-06-14 14:50:00,
2013-06-14 10:51:00,73.0,63.8,30.00,North,11,4.0,5.0,73,0.00,,BKN055,0.00,VWS V14.00,2013-06-14 14:51:00,
2013-06-14 11:00:00,73.4,64.2,30.00,SSE,162,0.0,6.0,73,0.00,,BKN055,0.00,VWS V14.00,2013-06-14 15:00:00,
2013-06-14 11:01:00,73.4,64.2,30.00,SSE,162,0.0,6.0,73,0.00,,BKN055,0.00,VWS V14.00,2013-06-14 15:01:00,
2013-06-14 11:10:00,74.4,64.8,30.00,NE,44,0.0,4.0,72,0.00,,BKN055,0.00,VWS V14.00,2013-06-14 15:10:00,
2013-06-14 11:11:00,74.4,64.8,30.00,NE,44,0.0,4.0,72,0.00,,BKN055,0.00,VWS V14.00,2013-06-14 15:11:00,
2013-06-14 11:20:00,74.6,65.8,30.01,East,80,0.0,4.0,74,0.00,,BKN055,0.00,VWS V14.00,2013-06-14 15:20:00,
2013-06-14 11:21:00,74.6,65.8,30.01,East,80,0.0,4.0,74,0.00,,BKN055,0.00,VWS V14.00,2013-06-14 15:21:00,
2013-06-14 11:30:00,75.5,65.8,30.01,East,81,0.0,5.0,72,0.00,,BKN055,0.00,VWS V14.00,2013-06-14 15:30:00,
2013-06-14 11:31:00,75.5,65.8,30.01,East,81,0.0,5.0,72,0.00,,BKN055,0.00,VWS V14.00,2013-06-14 15:31:00,
2013-06-14 11:40:00,76.0,65.1,30.01,NNW,338,0.0,4.0,69,0.00,,BKN055,0.00,VWS V14.00,2013-06-14 15:40:00,
2013-06-14 11:41:00,76.0,65.1,30.01,NNW,338,0.0,4.0,69,0.00,,BKN055,0.00,VWS V14.00,2013-06-14 15:41:00,
2013-06-14 11:50:00,76.3,65.4,30.01,ENE,70,0.0,4.0,69,0.00,,BKN055,0.00,VWS V14.00,2013-06-14 15:50:00,
2013-06-14 11:51:00,76.3,65.4,30.01,ENE,70,0.0,4.0,69,0.00,,BKN055,0.00,VWS V14.00,2013-06-14 15:51:00,
2013-06-14 12:10:00,77.9,65.6,30.01,SE,132,0.0,0.0,66,0.00,,BKN055,0.00,VWS V14.00,2013-06-14 16:10:00,
2013-06-14 12:11:00,77.9,65.6,30.01,SE,132,0.0,0.0,66,0.00,,BKN055,0.00,VWS V14.00,2013-06-14 16:11:00,
2013-06-14 12:20:00,79.1,65.0,30.01,SE,144,0.0,1.0,62,0.00,,BKN055,0.00,VWS V14.00,2013-06-14 16:20:00,
2013-06-14 12:21:00,79.1,65.0,30.01,SE,144,0.0,1.0,62,0.00,,BKN055,0.00,VWS V14.00,2013-06-14 16:21:00,
2013-06-14 12:30:00,78.7,65.1,30.01,SSW,192,0.0,2.0,63,0.00,,BKN055,0.00,VWS V14.00,2013-06-14 16:30:00,
2013-06-14 12:31:00,78.7,65.1,30.01,SSW,192,0.0,2.0,63,0.00,,BKN055,0.00,VWS V14.00,2013-06-14 16:31:00,
2013-06-14 12:40:00,78.7,65.5,30.01,ESE,119,0.0,1.0,64,0.00,,BKN055,0.00,VWS V14.00,2013-06-14 16:40:00,
2013-06-14 12:41:00,78.7,65.5,30.01,ESE,119,0.0,1.0,64,0.00,,BKN055,0.00,VWS V14.00,2013-06-14 16:41:00,
2013-06-14 12:50:00,79.0,64.4,30.01,ESE,117,0.0,2.0,61,0.00,,BKN055,0.00,VWS V14.00,2013-06-14 16:50:00,
2013-06-14 12:51:00,79.0,64.4,30.01,ESE,117,0.0,2.0,61,0.00,,BKN055,0.00,VWS V14.00,2013-06-14 16:51:00,
2013-06-14 13:00:00,79.2,65.5,30.01,South,188,0.0,5.0,63,0.00,,BKN055,0.00,VWS V14.00,2013-06-14 17:00:00,
2013-06-14 13:01:00,79.2,65.5,30.01,South,188,0.0,5.0,63,0.00,,BKN055,0.00,VWS V14.00,2013-06-14 17:01:00,
2013-06-14 13:10:00,79.4,64.3,30.00,NE,53,0.0,5.0,60,0.00,,BKN055,0.00,VWS V14.00,2013-06-14 17:10:00,
2013-06-14 13:11:00,79.4,64.3,30.00,NE,53,0.0,5.0,60,0.00,,BKN055,0.00,VWS V14.00,2013-06-14 17:11:00,
2013-06-14 13:20:00,79.9,64.3,30.00,NE,54,0.0,5.0,59,0.00,,BKN055,0.00,VWS V14.00,2013-06-14 17:20:00,
2013-06-14 13:21:00,79.9,64.3,30.00,NE,54,0.0,5.0,59,0.00,,BKN055,0.00,VWS V14.00,2013-06-14 17:21:00,
2013-06-14 13:30:00,79.7,65.5,30.00,NE,34,0.0,5.0,62,0.00,,BKN055,0.00,VWS V14.00,2013-06-14 17:30:00,
2013-06-14 13:31:00,79.7,65.5,30.00,NE,34,0.0,5.0,62,0.00,,BKN055,0.00,VWS V14.00,2013-06-14 17:31:00,
2013-06-14 13:40:00,79.8,63.2,29.99,North,11,0.0,7.0,57,0.00,,BKN055,0.00,VWS V14.00,2013-06-14 17:40:00,
2013-06-14 13:41:00,79.8,63.2,29.99,North,11,0.0,7.0,57,0.00,,BKN055,0.00,VWS V14.00,2013-06-14 17:41:00,
2013-06-14 13:50:00,79.8,64.2,29.99,North,350,1.0,6.0,59,0.00,,BKN055,0.00,VWS V14.00,2013-06-14 17:50:00,
2013-06-14 13:51:00,79.8,64.2,29.99,North,350,1.0,6.0,59,0.00,,BKN055,0.00,VWS V14.00,2013-06-14 17:51:00,
2013-06-14 14:00:00,79.4,64.3,29.98,NNW,341,3.0,6.0,60,0.00,,BKN055,0.00,VWS V14.00,2013-06-14 18:00:00,
2013-06-14 14:01:00,79.4,64.3,29.98,NNW,341,3.0,6.0,60,0.00,,BKN055,0.00,VWS V14.00,2013-06-14 18:01:00,
2013-06-14 14:10:00,79.6,63.5,29.98,NNW,333,0.0,6.0,58,0.00,,BKN055,0.00,VWS V14.00,2013-06-14 18:10:00,
2013-06-14 14:11:00,79.6,63.5,29.98,NNW,333,0.0,6.0,58,0.00,,BKN055,0.00,VWS V14.00,2013-06-14 18:11:00,
2013-06-14 14:20:00,80.1,65.9,29.98,SSE,165,0.0,3.0,62,0.00,,BKN055,0.00,VWS V14.00,2013-06-14 18:20:00,
2013-06-14 14:21:00,80.1,65.9,29.98,SSE,165,0.0,3.0,62,0.00,,BKN055,0.00,VWS V14.00,2013-06-14 18:21:00,
2013-06-14 14:30:00,79.7,63.6,29.99,North,5,0.0,6.0,58,0.00,,BKN055,0.00,VWS V14.00,2013-06-14 18:30:00,
2013-06-14 14:31:00,79.7,63.6,29.99,North,5,0.0,6.0,58,0.00,,BKN055,0.00,VWS V14.00,2013-06-14 18:31:00,
2013-06-14 14:40:00,80.7,63.6,29.98,NW,323,0.0,6.0,56,0.00,,BKN055,0.00,VWS V14.00,2013-06-14 18:40:00,
2013-06-14 14:41:00,80.7,63.6,29.98,NW,323,0.0,6.0,56,0.00,,BKN055,0.00,VWS V14.00,2013-06-14 18:41:00,
2013-06-14 14:50:00,81.4,65.7,29.98,ENE,59,5.0,13.0,59,0.00,,BKN055,0.00,VWS V14.00,2013-06-14 18:50:00,
2013-06-14 14:51:00,81.4,65.7,29.98,ENE,59,5.0,13.0,59,0.00,,BKN055,0.00,VWS V14.00,2013-06-14 18:51:00,
2013-06-14 15:00:00,80.6,64.5,29.98,ENE,68,0.0,6.0,58,0.00,,BKN055,0.00,VWS V14.00,2013-06-14 19:00:00,
2013-06-14 15:01:00,80.6,64.5,29.98,ENE,68,0.0,6.0,58,0.00,,BKN055,0.00,VWS V14.00,2013-06-14 19:01:00,
2013-06-14 15:10:00,81.3,64.1,29.97,ENE,74,0.0,10.0,56,0.00,,BKN055,0.00,VWS V14.00,2013-06-14 19:10:00,
2013-06-14 15:11:00,81.3,64.1,29.97,ENE,74,0.0,10.0,56,0.00,,BKN055,0.00,VWS V14.00,2013-06-14 19:11:00,
2013-06-14 15:20:00,81.8,64.6,29.97,ENE,68,0.0,6.0,56,0.00,,BKN055,0.00,VWS V14.00,2013-06-14 19:20:00,
2013-06-14 15:21:00,81.8,64.6,29.97,ENE,68,0.0,6.0,56,0.00,,BKN055,0.00,VWS V14.00,2013-06-14 19:21:00,
2013-06-14 15:30:00,81.0,63.8,29.97,ENE,76,0.0,4.0,56,0.00,,BKN055,0.00,VWS V14.00,2013-06-14 19:30:00,
2013-06-14 15:31:00,81.0,63.8,29.97,ENE,76,0.0,4.0,56,0.00,,BKN055,0.00,VWS V14.00,2013-06-14 19:31:00,
2013-06-14 15:40:00,81.1,63.9,29.98,NW,313,3.0,7.0,56,0.00,,BKN055,0.00,VWS V14.00,2013-06-14 19:40:00,
2013-06-14 15:41:00,81.1,63.9,29.98,NW,313,3.0,7.0,56,0.00,,BKN055,0.00,VWS V14.00,2013-06-14 19:41:00,
2013-06-14 15:50:00,82.0,63.7,29.98,NW,304,2.0,9.0,54,0.00,,BKN055,0.00,VWS V14.00,2013-06-14 19:50:00,
2013-06-14 15:51:00,82.0,63.7,29.98,NW,304,2.0,9.0,54,0.00,,BKN055,0.00,VWS V14.00,2013-06-14 19:51:00,
2013-06-14 16:00:00,82.5,64.2,29.98,North,9,0.0,5.0,54,0.00,,BKN055,0.00,VWS V14.00,2013-06-14 20:00:00,
2013-06-14 16:01:00,82.5,64.2,29.98,North,9,0.0,5.0,54,0.00,,BKN055,0.00,VWS V14.00,2013-06-14 20:01:00,
2013-06-14 16:10:00,82.5,64.2,29.98,WNW,301,0.0,5.0,54,0.00,,BKN055,0.00,VWS V14.00,2013-06-14 20:10:00,
2013-06-14 16:11:00,82.5,64.2,29.98,WNW,301,0.0,5.0,54,0.00,,BKN055,0.00,VWS V14.00,2013-06-14 20:11:00,
2013-06-14 16:20:00,83.0,61.9,29.97,NE,40,0.0,6.0,49,0.00,,BKN055,0.00,VWS V14.00,2013-06-14 20:20:00,
2013-06-14 16:21:00,83.0,61.9,29.97,NE,40,0.0,6.0,49,0.00,,BKN055,0.00,VWS V14.00,2013-06-14 20:21:00,
2013-06-14 16:30:00,82.7,62.8,29.98,NE,46,0.0,6.0,51,0.00,,BKN055,0.00,VWS V14.00,2013-06-14 20:30:00,
2013-06-14 16:31:00,82.7,62.8,29.98,NE,46,0.0,6.0,51,0.00,,BKN055,0.00,VWS V14.00,2013-06-14 20:31:00,
2013-06-14 16:40:00,82.8,63.9,29.98,North,355,3.0,10.0,53,0.00,,BKN055,0.00,VWS V14.00,2013-06-14 20:40:00,
2013-06-14 16:41:00,82.8,63.9,29.98,North,355,3.0,10.0,53,0.00,,BKN055,0.00,VWS V14.00,2013-06-14 20:41:00,
2013-06-14 16:50:00,82.5,63.7,29.98,NW,306,2.0,9.0,53,0.00,,BKN055,0.00,VWS V14.00,2013-06-14 20:50:00,
2013-06-14 16:51:00,82.5,63.7,29.98,NW,306,2.0,9.0,53,0.00,,BKN055,0.00,VWS V14.00,2013-06-14 20:51:00,
2013-06-14 17:00:00,82.3,63.5,29.98,NW,308,4.0,5.0,53,0.00,,BKN055,0.00,VWS V14.00,2013-06-14 21:00:00,
2013-06-14 17:01:00,82.3,63.5,29.98,NW,308,4.0,5.0,53,0.00,,BKN055,0.00,VWS V14.00,2013-06-14 21:01:00,
2013-06-14 17:10:00,82.4,62.5,29.97,North,360,2.0,7.0,51,0.00,,BKN055,0.00,VWS V14.00,2013-06-14 21:10:00,
2013-06-14 17:11:00,82.4,62.5,29.97,North,360,2.0,7.0,51,0.00,,BKN055,0.00,VWS V14.00,2013-06-14 21:11:00,
2013-06-14 17:20:00,82.0,63.7,29.97,NE,34,0.0,7.0,54,0.00,,BKN055,0.00,VWS V14.00,2013-06-14 21:20:00,
2013-06-14 17:21:00,82.0,63.7,29.97,NE,34,0.0,7.0,54,0.00,,BKN055,0.00,VWS V14.00,2013-06-14 21:21:00,
2013-06-14 17:30:00,81.4,64.2,29.97,NE,38,0.0,1.0,56,0.00,,BKN055,0.00,VWS V14.00,2013-06-14 21:30:00,
2013-06-14 17:31:00,81.4,64.2,29.97,NE,38,0.0,1.0,56,0.00,,BKN055,0.00,VWS V14.00,2013-06-14 21:31:00,
2013-06-14 17:40:00,81.5,63.3,29.97,ENE,65,4.0,5.0,54,0.00,,BKN055,0.00,VWS V14.00,2013-06-14 21:40:00,
2013-06-14 17:41:00,81.5,63.3,29.97,ENE,65,4.0,5.0,54,0.00,,BKN055,0.00,VWS V14.00,2013-06-14 21:41:00,
2013-06-14 17:50:00,81.4,64.2,29.97,ENE,67,0.0,5.0,56,0.00,,BKN055,0.00,VWS V14.00,2013-06-14 21:50:00,
2013-06-14 17:51:00,81.4,64.2,29.97,ENE,67,0.0,5.0,56,0.00,,BKN055,0.00,VWS V14.00,2013-06-14 21:51:00,
2013-06-14 18:00:00,80.6,63.5,29.97,ENE,57,0.0,3.0,56,0.00,,BKN055,0.00,VWS V14.00,2013-06-14 22:00:00,
2013-06-14 18:01:00,80.6,63.5,29.97,ENE,57,0.0,3.0,56,0.00,,BKN055,0.00,VWS V14.00,2013-06-14 22:01:00,
2013-06-14 18:10:00,80.0,64.4,29.97,ENE,59,0.0,1.0,59,0.00,,BKN055,0.00,VWS V14.00,2013-06-14 22:10:00,
2013-06-14 18:11:00,80.0,64.4,29.97,ENE,59,0.0,1.0,59,0.00,,BKN055,0.00,VWS V14.00,2013-06-14 22:11:00,
2013-06-14 18:20:00,80.4,63.8,29.97,East,91,0.0,1.0,57,0.00,,BKN055,0.00,VWS V14.00,2013-06-14 22:20:00,
2013-06-14 18:21:00,80.4,63.8,29.97,East,91,0.0,1.0,57,0.00,,BKN055,0.00,VWS V14.00,2013-06-14 22:21:00,
2013-06-14 18:30:00,80.6,64.5,29.97,NW,321,0.0,0.0,58,0.00,,BKN055,0.00,VWS V14.00,2013-06-14 22:30:00,
2013-06-14 18:31:00,80.6,64.5,29.97,NW,321,0.0,0.0,58,0.00,,BKN055,0.00,VWS V14.00,2013-06-14 22:31:00,
2013-06-14 18:40:00,81.2,63.5,29.97,WNW,290,0.0,0.0,55,0.00,,BKN055,0.00,VWS V14.00,2013-06-14 22:40:00,
2013-06-14 18:41:00,81.2,63.5,29.97,WNW,290,0.0,0.0,55,0.00,,BKN055,0.00,VWS V14.00,2013-06-14 22:41:00,
2013-06-14 18:50:00,81.6,63.4,29.97,NE,37,0.0,6.0,54,0.00,,BKN055,0.00,VWS V14.00,2013-06-14 22:50:00,
2013-06-14 18:51:00,81.6,63.4,29.97,NE,37,0.0,6.0,54,0.00,,BKN055,0.00,VWS V14.00,2013-06-14 22:51:00,
2013-06-14 19:00:00,81.8,63.5,29.97,NNE,24,0.0,1.0,54,0.00,,BKN055,0.00,VWS V14.00,2013-06-14 23:00:00,
2013-06-14 19:01:00,81.8,63.5,29.97,NNE,24,0.0,1.0,54,0.00,,BKN055,0.00,VWS V14.00,2013-06-14 23:01:00,
2013-06-14 19:10:00,81.5,63.8,29.97,NNW,342,0.0,1.0,55,0.00,,BKN055,0.00,VWS V14.00,2013-06-14 23:10:00,
2013-06-14 19:11:00,81.5,63.8,29.97,NNW,342,0.0,1.0,55,0.00,,BKN055,0.00,VWS V14.00,2013-06-14 23:11:00,
2013-06-14 19:20:00,81.5,66.3,29.97,NNW,341,0.0,0.0,60,0.00,,BKN055,0.00,VWS V14.00,2013-06-14 23:20:00,
2013-06-14 19:21:00,81.5,66.3,29.97,NNW,341,0.0,0.0,60,0.00,,BKN055,0.00,VWS V14.00,2013-06-14 23:21:00,
2013-06-14 19:30:00,81.3,66.6,29.97,NNW,341,0.0,1.0,61,0.00,,BKN055,0.00,VWS V14.00,2013-06-14 23:30:00,
2013-06-14 19:31:00,81.3,66.6,29.97,NNW,341,0.0,1.0,61,0.00,,BKN055,0.00,VWS V14.00,2013-06-14 23:31:00,
2013-06-14 19:40:00,80.0,67.6,29.97,NNW,341,0.0,0.0,66,0.00,,BKN055,0.00,VWS V14.00,2013-06-14 23:40:00,
2013-06-14 19:41:00,80.0,67.6,29.97,NNW,341,0.0,0.0,66,0.00,,BKN055,0.00,VWS V14.00,2013-06-14 23:41:00,
2013-06-14 19:50:00,78.9,64.8,29.97,NNW,341,0.0,0.0,62,0.00,,BKN055,0.00,VWS V14.00,2013-06-14 23:50:00,
2013-06-14 19:51:00,78.9,64.8,29.97,NNW,341,0.0,0.0,62,0.00,,BKN055,0.00,VWS V14.00,2013-06-14 23:51:00,
2013-06-14 20:00:00,77.4,67.3,29.96,NNW,341,0.0,0.0,71,0.00,,BKN055,0.00,VWS V14.00,2013-06-15 00:00:00,
2013-06-14 20:01:00,77.4,67.3,29.96,NNW,341,0.0,0.0,71,0.00,,BKN055,0.00,VWS V14.00,2013-06-15 00:01:00,
2013-06-14 20:10:00,75.9,67.8,29.96,NNW,341,0.0,0.0,76,0.00,,BKN055,0.00,VWS V14.00,2013-06-15 00:10:00,
2013-06-14 20:11:00,75.9,67.8,29.96,NNW,341,0.0,0.0,76,0.00,,BKN055,0.00,VWS V14.00,2013-06-15 00:11:00,
2013-06-14 20:20:00,74.3,66.2,29.96,NNW,341,0.0,0.0,76,0.00,,BKN055,0.00,VWS V14.00,2013-06-15 00:20:00,
2013-06-14 20:21:00,74.3,66.2,29.96,NNW,341,0.0,0.0,76,0.00,,BKN055,0.00,VWS V14.00,2013-06-15 00:21:00,
2013-06-14 20:30:00,73.1,65.8,29.96,NNW,341,0.0,1.0,78,0.00,,BKN055,0.00,VWS V14.00,2013-06-15 00:30:00,
2013-06-14 20:31:00,73.1,65.8,29.96,NNW,341,0.0,1.0,78,0.00,,BKN055,0.00,VWS V14.00,2013-06-15 00:31:00,
2013-06-14 20:40:00,72.3,65.8,29.96,NNE,20,0.0,0.0,80,0.00,,BKN055,0.00,VWS V14.00,2013-06-15 00:40:00,
2013-06-14 20:41:00,72.3,65.8,29.96,NNE,20,0.0,0.0,80,0.00,,BKN055,0.00,VWS V14.00,2013-06-15 00:41:00,
2013-06-14 20:50:00,71.5,65.7,29.97,NE,36,1.0,1.0,82,0.00,,BKN055,0.00,VWS V14.00,2013-06-15 00:50:00,
2013-06-14 20:51:00,71.5,65.7,29.97,NE,36,1.0,1.0,82,0.00,,BKN055,0.00,VWS V14.00,2013-06-15 00:51:00,
2013-06-14 21:00:00,70.6,65.5,29.97,NE,36,0.0,3.0,84,0.00,,BKN055,0.00,VWS V14.00,2013-06-15 01:00:00,
2013-06-14 21:01:00,70.6,65.5,29.97,NE,36,0.0,3.0,84,0.00,,BKN055,0.00,VWS V14.00,2013-06-15 01:01:00,
2013-06-14 21:10:00,69.8,65.4,29.98,NNW,347,0.0,2.0,86,0.00,,BKN055,0.00,VWS V14.00,2013-06-15 01:10:00,
2013-06-14 21:11:00,69.8,65.4,29.98,NNW,347,0.0,2.0,86,0.00,,BKN055,0.00,VWS V14.00,2013-06-15 01:11:00,
2013-06-14 21:20:00,69.3,65.3,29.97,NNW,347,0.0,0.0,87,0.00,,BKN055,0.00,VWS V14.00,2013-06-15 01:20:00,
2013-06-14 21:21:00,69.3,65.3,29.97,NNW,347,0.0,0.0,87,0.00,,BKN055,0.00,VWS V14.00,2013-06-15 01:21:00,
2013-06-14 21:30:00,68.8,65.1,29.97,NNW,346,0.0,3.0,88,0.00,,BKN055,0.00,VWS V14.00,2013-06-15 01:30:00,
2013-06-14 21:31:00,68.8,65.1,29.97,NNW,346,0.0,3.0,88,0.00,,BKN055,0.00,VWS V14.00,2013-06-15 01:31:00,
2013-06-14 21:40:00,68.0,64.6,29.98,NNW,347,0.0,3.0,89,0.00,,BKN055,0.00,VWS V14.00,2013-06-15 01:40:00,
2013-06-14 21:41:00,68.0,64.6,29.98,NNW,347,0.0,3.0,89,0.00,,BKN055,0.00,VWS V14.00,2013-06-15 01:41:00,
2013-06-14 21:50:00,67.6,64.6,29.98,NNW,346,0.0,1.0,90,0.00,,BKN055,0.00,VWS V14.00,2013-06-15 01:50:00,
2013-06-14 21:51:00,67.6,64.6,29.98,NNW,346,0.0,1.0,90,0.00,,BKN055,0.00,VWS V14.00,2013-06-15 01:51:00,
2013-06-14 22:00:00,66.9,64.2,29.98,NNW,347,0.0,3.0,91,0.00,,BKN055,0.00,VWS V14.00,2013-06-15 02:00:00,
2013-06-14 22:01:00,66.9,64.2,29.98,NNW,347,0.0,3.0,91,0.00,,BKN055,0.00,VWS V14.00,2013-06-15 02:01:00,
2013-06-14 22:10:00,66.4,64.0,29.99,NNW,346,0.0,2.0,92,0.00,,BKN055,0.00,VWS V14.00,2013-06-15 02:10:00,
2013-06-14 22:11:00,66.4,64.0,29.99,NNW,346,0.0,2.0,92,0.00,,BKN055,0.00,VWS V14.00,2013-06-15 02:11:00,
2013-06-14 22:20:00,65.9,63.5,29.99,NNW,347,0.0,2.0,92,0.00,,BKN055,0.00,VWS V14.00,2013-06-15 02:20:00,
2013-06-14 22:21:00,65.9,63.5,29.99,NNW,347,0.0,2.0,92,0.00,,BKN055,0.00,VWS V14.00,2013-06-15 02:21:00,
2013-06-14 22:30:00,65.6,63.5,29.99,NNW,347,0.0,1.0,93,0.00,,BKN055,0.00,VWS V14.00,2013-06-15 02:30:00,
2013-06-14 22:31:00,65.6,63.5,29.99,NNW,347,0.0,1.0,93,0.00,,BKN055,0.00,VWS V14.00,2013-06-15 02:31:00,
2013-06-14 22:40:00,65.3,63.5,30.00,NNW,347,0.0,3.0,94,0.00,,BKN055,0.00,VWS V14.00,2013-06-15 02:40:00,
2013-06-14 22:41:00,65.3,63.5,30.00,NNW,347,0.0,3.0,94,0.00,,BKN055,0.00,VWS V14.00,2013-06-15 02:41:00,
2013-06-14 22:50:00,64.9,63.1,30.00,NNW,348,0.0,3.0,94,0.00,,BKN055,0.00,VWS V14.00,2013-06-15 02:50:00,
2013-06-14 22:51:00,64.9,63.1,30.00,NNW,348,0.0,3.0,94,0.00,,BKN055,0.00,VWS V14.00,2013-06-15 02:51:00,
2013-06-14 23:00:00,64.7,62.9,30.01,NNW,348,0.0,2.0,94,0.00,,BKN055,0.00,VWS V14.00,2013-06-15 03:00:00,
2013-06-14 23:01:00,64.7,62.9,30.01,NNW,348,0.0,2.0,94,0.00,,BKN055,0.00,VWS V14.00,2013-06-15 03:01:00,
2013-06-14 23:10:00,64.4,62.6,30.00,NNW,348,0.0,0.0,94,0.00,,BKN055,0.00,VWS V14.00,2013-06-15 03:10:00,
2013-06-14 23:11:00,64.4,62.6,30.00,NNW,348,0.0,0.0,94,0.00,,BKN055,0.00,VWS V14.00,2013-06-15 03:11:00,
2013-06-14 23:20:00,64.1,62.6,30.00,NNW,348,0.0,0.0,95,0.00,,BKN055,0.00,VWS V14.00,2013-06-15 03:20:00,
2013-06-14 23:21:00,64.1,62.6,30.00,NNW,348,0.0,0.0,95,0.00,,BKN055,0.00,VWS V14.00,2013-06-15 03:21:00,
2013-06-14 23:30:00,63.9,62.4,30.00,NNW,348,1.0,1.0,95,0.00,,BKN055,0.00,VWS V14.00,2013-06-15 03:30:00,
2013-06-14 23:31:00,63.9,62.4,30.00,NNW,348,1.0,1.0,95,0.00,,BKN055,0.00,VWS V14.00,2013-06-15 03:31:00,
2013-06-14 23:40:00,63.5,62.0,30.01,NNW,348,0.0,2.0,95,0.00,,BKN055,0.00,VWS V14.00,2013-06-15 03:40:00,
2013-06-14 23:41:00,63.5,62.0,30.01,NNW,348,0.0,2.0,95,0.00,,BKN055,0.00,VWS V14.00,2013-06-15 03:41:00,
2013-06-14 23:50:00,63.2,62.0,30.01,NNW,348,0.0,3.0,96,0.00,,BKN055,0.00,VWS V14.00,2013-06-15 03:50:00,
2013-06-14 23:51:00,63.2,62.0,30.01,NNW,348,0.0,3.0,96,0.00,,BKN055,0.00,VWS V14.00,2013-06-15 03:51:00,